{"data":{"norad_id":63826,"epoch":"2026-09-20T00:49:49.303488Z","epoch_age_seconds":190105,"freshness":"STALE","line1":"1 63826U 25092Y   26263.03459842  .00004644  00000+0  17816-3 0  9990","line2":"2 63826  43.0013 155.2905 0001575 266.4044  93.6627 15.27580669 78387","mean_motion":15.27580669,"eccentricity":0.0001575,"inclination_deg":43.0013,"raan_deg":155.2905,"arg_perigee_deg":266.4044,"mean_anomaly_deg":93.6627,"bstar":0.00017816,"rev_number":7838,"period_min":94.266707429773,"perigee_km":481.96645631909,"apogee_km":484.12772930833,"semimajor_km":6861.1840928137,"source":"CELESTRAK","updated_at":"2026-09-21T09:00:35.108686Z"}}